Location: Mason
(37.5237°N, 89.2543°W)
Time: 07:35:38
(UTC+00:00)

NOSS 2-1 (C) - Pass Details

Date: 24 January 2021
Orbit: 432 x 1770 km, 63.3° (Epoch: 27 February)

Event Time Altitude Azimuth Distance (km) Brightness Sun altitude
Rises 23:50:26 0° 210° (SSW) 2,590 7.6 -7.8°
Reaches altitude 10° 23:52:40 10° 210° (SSW) 1,617 6.5 -8.3°
Maximum altitude 23:56:07 85° 124° (SE) 442 2.8 -8.9°
Drops below altitude 10° 23:59:24 10° 34° (NE) 1,544 5.2 -9.5°
Enters shadow 23:59:48 - 34° (NNE) 1,718 5.4 -9.6°
